User: anonymous   Login
Location: Unspecified
(0.0000°N, 0.0000°E)
Time: 17:15:17
(UTC+00:00)
Language:

GALILEO 7 (263) - Orbit

View from above orbital plane
View from above orbital plane
View from above satellite
View from above satellite

Ground track
Ground track

The orbit data is extracted from the following two-line orbital elements,

1 40544U 15017A   17226.65266028 -.00000024  00000-0  00000+0 0  9990
2 40544  55.6597  70.3561 0001409 205.4923 154.5738  1.70474928 14816
Epoch (UTC): 14 August 2017 15:39:49
Eccentricity: 0.0001409
inclination: 55.6597°
perigee height: 23217 km
apogee height: 23226 km
right ascension of ascending node: 70.3561°
argument of perigee: 205.4923°
revolutions per day: 1.70474928
mean anomaly at epoch: 154.5738°
orbit number at epoch: 1481

The dashed part of the orbit path shows where the satellite is in the earth's shadow,  

DLR